Flag for Mexico Weather past 2 weeks in Mexicali, Baja California, Mexico

Now
106 °F

Sunny.


Feels Like: 106 °F
Forecast: 85 / 112 °F
Wind: No wind

Location: Imperial County Airport

Current Time: Aug 27, 2015 at 7:29:11 PM

Latest Report: Aug 27, 2015 at 6:53 PM


Visibility: 10 mi

Pressure: 29.74 "Hg

Humidity: 21%

Dew point: 58 °F

Location of MexicaliLocation

Historic Weather in Mexicali — Graph

°F

Mexicali temperature yesterday

Maximum temperature yesterday: 108 °F (at 2:53 PM)
Minimum temperature yesterday: 83 °F (at 4:53 AM)
Average temperature yesterday: 97 °F

Past Weeks' High & Low Weather Summary

 TemperatureHumidityPressure
High117 °F (Aug 15, 2:53 PM)77% (Aug 21, 3:53 AM)29.91 "Hg (Aug 21, 3:53 AM)
Low80 °F (Aug 19, 5:53 AM)7% (Aug 18, 2:53 PM)29.61 "Hg (Aug 20, 5:53 PM)
Average97 °F33%29.75 "Hg
* Reported Aug 12 5:53 PM — Aug 27 5:53 PM, Mexicali, Weather by CustomWeather, © 2015

Note: Actual official high and low records may vary slightly from our data, if they occured in-between our weather recording intervals... More about our weather records

Advertising

Mexicali weather history for previous 24 hours

 ConditionsComfort  
Time TempWeatherWind HumidityBarometerVisibility
5:53 PM
Thu, Aug 27
108 °FSunny.3 mph19%29.73 "Hg10 mi
4:53 PM109 °FSunny.8 mph19%29.75 "Hg10 mi
3:53 PM108 °FSunny.6 mph19%29.77 "Hg10 mi
2:53 PM109 °FSunny.6 mph20%29.79 "Hg10 mi
1:53 PM109 °FSunny.8 mph18%29.81 "Hg10 mi
12:53 PM108 °FSunny.5 mph19%29.85 "Hg10 mi
11:53 AM106 °FSunny.N/A19%29.88 "Hg10 mi
10:53 AM102 °FSunny.3 mph22%29.90 "Hg10 mi
9:53 AM99 °FSunny.No wind24%29.90 "Hg10 mi
8:53 AM96 °FSunny.6 mph28%29.90 "Hg10 mi
7:53 AM93 °FSunny.5 mph32%29.89 "Hg10 mi
6:53 AM88 °FClear.3 mph35%29.87 "Hg10 mi
5:53 AM87 °FClear.No wind36%29.85 "Hg10 mi
4:53 AM89 °FClear.3 mph34%29.84 "Hg10 mi
3:53 AM89 °FClear.3 mph34%29.83 "Hg10 mi
2:53 AM89 °FClear.3 mph38%29.83 "Hg10 mi
1:53 AM90 °FClear.6 mph38%29.84 "Hg10 mi
12:53 AM91 °FClear.7 mph37%29.83 "Hg10 mi
11:53 PM
Wed, Aug 26
95 °FClear.7 mph31%29.83 "Hg10 mi
10:53 PM97 °FClear.10 mph30%29.83 "Hg10 mi
9:53 PM97 °FClear.7 mph32%29.82 "Hg10 mi
8:53 PM100 °FClear.6 mph27%29.80 "Hg10 mi
7:53 PM101 °FSunny.No wind25%29.78 "Hg10 mi
Weather by CustomWeather, © 2015

See weather overviewHow to use our weather pages